Weather History for New Bern, NC

Change the Weather History Date:

Thursday, February 14, 2013

  Actual Average Record
Temperature  
Mean Temperature 47 °F 47 °F  
Max Temperature 55 °F 58 °F 79 °F (1949)
Min Temperature 38 °F 36 °F 16 °F (1955)
Degree Days  
Heating Degree Days 18 18  
Month to date heating degree days 213 268  
Since 1 July heating degree days 1657 1908  
Cooling Degree Days 0 0  
Month to date cooling degree days 0 0  
Year to date cooling degree days 7 1  
Moisture  
Dew Point 38 °F    
Average Humidity 71    
Maximum Humidity 92    
Minimum Humidity 50    
Precipitation  
Precipitation 0.00 in 0.13 in 2.77 in (1984)
Month to date precipitation 2.55 1.74  
Year to date precipitation 4.38 5.76  
Snow  
Snow 0.00 in - - ()
Month to date snowfall 0.0  
Since 1 July snowfall 0.0  
Snow Depth 0.00 in    
Sea Level Pressure  
Sea Level Pressure 29.98 in    
Wind  
Wind Speed 4 mph (NNW)    
Max Wind Speed 16 mph    
Max Gust Speed 21 mph    
Visibility 10 miles    
Events      
T = Trace of Precipitation, MM = Missing Value Source: NWS Daily Summary

Daily Weather History Graph

Daily Weather History Graph

Search for Another Location

Airport:

Trip Planner

Search our weather history database for the weather conditions in past years. The results will help you decide how hot, cold, wet, or windy it might be!

Date:

Astronomy

Feb. 14, 2013 Rise Set
Actual Time 6:55 AM EST 5:50 PM EST
Civil Twilight 6:29 AM EST 6:16 PM EST
Nautical Twilight 5:59 AM EST 6:45 PM EST
Astronomical Twilight 5:29 AM EST 7:15 PM EST
Moon 9:08 AM EST (2/14) 10:36 PM EST (2/14)
Length of Visible Light 11h 46m
Length of Day
10h 55m
Waxing Crescent, 21% of the Moon is Illuminated
Feb 14
Waxing Crescent
Feb 17
First Quarter
Feb 25
Full
Mar 4
Last Quarter
Mar 11
New

Hourly Weather History & Observations

Time (EST) Temp. Windchill Dew Point Humidity Pressure Visibility Wind Dir Wind Speed Gust Speed Precip Events Conditions
12:54 AM 52.0 °F - 45.0 °F 77% 29.83 in 10.0 mi West 6.9 mph - N/A   Clear
1:18 AM 51.8 °F - 44.6 °F 76% 29.83 in 10.0 mi WNW 11.5 mph 18.4 mph N/A   Mostly Cloudy
1:47 AM 51.8 °F - 42.8 °F 71% 29.83 in 10.0 mi NNW 11.5 mph 20.7 mph N/A   Scattered Clouds
1:54 AM 51.1 °F - 42.1 °F 71% 29.84 in 10.0 mi NW 11.5 mph 20.7 mph N/A   Scattered Clouds
2:15 AM 50.0 °F - 41.0 °F 71% 29.84 in 10.0 mi NW 10.4 mph 19.6 mph N/A   Mostly Cloudy
2:27 AM 48.2 °F - 37.4 °F 66% 29.85 in 10.0 mi NW 15.0 mph - N/A   Scattered Clouds
2:54 AM 48.0 °F - 37.0 °F 66% 29.86 in 10.0 mi NW 9.2 mph - N/A   Clear
3:54 AM 46.0 °F 41.9 °F 36.0 °F 68% 29.90 in 10.0 mi NNW 8.1 mph - N/A   Clear
4:54 AM 45.0 °F 41.2 °F 36.0 °F 71% 29.94 in 10.0 mi NW 6.9 mph - N/A   Clear
5:54 AM 44.1 °F 40.8 °F 36.0 °F 73% 29.96 in 10.0 mi North 5.8 mph - N/A   Clear
6:54 AM 43.0 °F 39.5 °F 37.0 °F 80% 29.99 in 10.0 mi North 5.8 mph - N/A   Clear
7:54 AM 43.0 °F 39.5 °F 37.0 °F 80% 30.01 in 10.0 mi North 5.8 mph - N/A   Clear
8:54 AM 45.0 °F 42.6 °F 37.0 °F 74% 30.04 in 10.0 mi North 4.6 mph - N/A   Clear
9:54 AM 46.9 °F - 37.0 °F 68% 30.05 in 10.0 mi NNE 10.4 mph - N/A   Clear
10:54 AM 48.9 °F - 36.0 °F 61% 30.06 in 10.0 mi ENE 8.1 mph - N/A   Clear
11:54 AM 50.0 °F - 35.1 °F 57% 30.05 in 10.0 mi Variable 3.5 mph - N/A   Clear
12:54 PM 52.0 °F - 36.0 °F 54% 30.05 in 10.0 mi ENE 4.6 mph - N/A   Clear
1:54 PM 53.1 °F - 35.1 °F 50% 30.03 in 10.0 mi Calm Calm - N/A   Clear
2:54 PM 53.1 °F - 35.1 °F 50% 30.01 in 10.0 mi Calm Calm - N/A   Clear
3:54 PM 53.1 °F - 35.1 °F 50% 30.03 in 10.0 mi Calm Calm - N/A   Clear
4:54 PM 52.0 °F - 36.0 °F 54% 30.03 in 10.0 mi Calm Calm - N/A   Clear
5:54 PM 48.9 °F - 39.0 °F 69% 30.05 in 10.0 mi Calm Calm - N/A   Clear
6:54 PM 44.1 °F - 39.0 °F 82% 30.05 in 10.0 mi Calm Calm - N/A   Clear
7:54 PM 43.0 °F - 37.9 °F 82% 30.07 in 10.0 mi Calm Calm - N/A   Clear
8:54 PM 41.0 °F 39.0 °F 37.0 °F 86% 30.10 in 9.0 mi SSE 3.5 mph - N/A   Clear
9:54 PM 39.9 °F - 36.0 °F 86% 30.10 in 9.0 mi Calm Calm - N/A   Clear
10:54 PM 39.9 °F - 37.0 °F 89% 30.09 in 4.0 mi Calm Calm - N/A   Clear
11:54 PM 39.0 °F - 36.0 °F 89% 30.08 in 5.0 mi Calm Calm - N/A   Clear